• In Germany
  • List of Countries
  • For 7 days
  • Water Temperature
  • Satellite Maps
  • Weather Map
  • Weather Widgets
  • user-avatar
    Login

    Hourly Weather Saidpur

    Today, 21 July, Friday

    Time Temperature Precipitation Wind Pressure Humidity
    00:00 +30°C° 0.5 mm 4 mps 748 mmHg 82%
    01:00 +30°C° 0.4 mm 4 mps 748 mmHg 83%
    02:00 +30°C° 0.4 mm 4 mps 748 mmHg 83%
    03:00 +29°C° 0.4 mm 4 mps 747 mmHg 84%
    04:00 +29°C° 0.7 mm 4 mps 748 mmHg 84%
    05:00 +29°C° 0.7 mm 4 mps 748 mmHg 85%
    06:00 +29°C° 0.7 mm 5 mps 748 mmHg 85%
    07:00 +30°C° 0.6 mm 5 mps 748 mmHg 81%
    08:00 +32°C° 0.6 mm 6 mps 748 mmHg 78%
    09:00 +33°C° 0.6 mm 7 mps 749 mmHg 74%
    10:00 +34°C° 0.5 mm 7 mps 749 mmHg 71%
    11:00 +34°C° 0.5 mm 7 mps 749 mmHg 67%
    12:00 +35°C° 0.5 mm 7 mps 749 mmHg 64%
    13:00 +35°C° 1.8 mm 7 mps 748 mmHg 65%
    14:00 +35°C° 1.8 mm 7 mps 748 mmHg 66%
    15:00 +35°C° 1.8 mm 7 mps 747 mmHg 66%
    16:00 +34°C° 1.8 mm 6 mps 747 mmHg 70%
    17:00 +33°C° 1.8 mm 5 mps 747 mmHg 73%
    18:00 +33°C° 1.8 mm 5 mps 746 mmHg 76%
    19:00 +32°C° 1.2 mm 5 mps 747 mmHg 78%
    20:00 +32°C° 1.2 mm 5 mps 748 mmHg 80%
    21:00 +30°C° 1.2 mm 5 mps 748 mmHg 83%
    22:00 +30°C° 2.1 mm 5 mps 748 mmHg 84%
    23:00 +30°C° 2.1 mm 5 mps 748 mmHg 84%

    Tomorrow, 22 July, Saturday

    Time Temperature Precipitation Wind Pressure Humidity
    00:00 +30°C° 2.1 mm 5 mps 748 mmHg 85%
    01:00 +29°C° 2.1 mm 5 mps 748 mmHg 86%
    02:00 +29°C° 2.1 mm 5 mps 748 mmHg 87%
    03:00 +29°C° 2.1 mm 5 mps 747 mmHg 88%
    04:00 +29°C° 1.5 mm 5 mps 748 mmHg 88%
    05:00 +29°C° 1.5 mm 5 mps 748 mmHg 88%
    06:00 +29°C° 1.5 mm 5 mps 748 mmHg 88%
    07:00 +29°C° 0.7 mm 6 mps 749 mmHg 85%
    08:00 +30°C° 0.7 mm 6 mps 749 mmHg 82%
    09:00 +32°C° 0.7 mm 6 mps 750 mmHg 79%
    10:00 +32°C° 1.1 mm 6 mps 750 mmHg 76%
    11:00 +33°C° 1.1 mm 6 mps 749 mmHg 74%
    12:00 +34°C° 1.1 mm 6 mps 749 mmHg 71%
    13:00 +34°C° 2.1 mm 6 mps 749 mmHg 70%
    14:00 +34°C° 2.1 mm 5 mps 748 mmHg 70%
    15:00 +34°C° 2.1 mm 5 mps 748 mmHg 69%
    16:00 +34°C° 1.4 mm 4 mps 748 mmHg 71%
    17:00 +34°C° 1.4 mm 3 mps 747 mmHg 73%
    18:00 +33°C° 1.4 mm 3 mps 747 mmHg 75%
    19:00 +32°C° 0.1 mm 2 mps 748 mmHg 77%
    20:00 +31°C° 0.1 mm 2 mps 748 mmHg 79%
    21:00 +31°C° 0.1 mm 2 mps 749 mmHg 82%
    22:00 +31°C° 0.4 mm 2 mps 749 mmHg 83%
    23:00 +30°C° 0.4 mm 2 mps 749 mmHg 84%

    Day after tomorrow, 23 July, Sunday

    Time Temperature Precipitation Wind Pressure Humidity
    00:00 +30°C° 0.4 mm 1 mps 749 mmHg 85%
    01:00 +30°C° 1.5 mm 2 mps 748 mmHg 85%
    02:00 +30°C° 1.5 mm 2 mps 748 mmHg 85%
    03:00 +30°C° 1.5 mm 2 mps 747 mmHg 85%
    04:00 +30°C° 0.4 mm 2 mps 748 mmHg 86%
    05:00 +29°C° 0.4 mm 2 mps 748 mmHg 86%
    06:00 +29°C° 0.4 mm 2 mps 748 mmHg 86%
    07:00 +30°C° 1 mm 2 mps 748 mmHg 83%
    08:00 +31°C° 1 mm 3 mps 748 mmHg 80%
    09:00 +31°C° 1 mm 3 mps 749 mmHg 77%
    10:00 +33°C° 2.9 mm 3 mps 748 mmHg 75%
    11:00 +33°C° 2.9 mm 3 mps 748 mmHg 73%
    12:00 +34°C° 2.9 mm 3 mps 748 mmHg 71%
    13:00 +34°C° 1 mm 3 mps 747 mmHg 70%
    14:00 +34°C° 1 mm 3 mps 747 mmHg 69%
    15:00 +34°C° 1 mm 3 mps 746 mmHg 68%
    16:00 +34°C° 0.2 mm 2 mps 746 mmHg 69%
    17:00 +34°C° 0.2 mm 2 mps 746 mmHg 70%
    18:00 +34°C° 0.2 mm 2 mps 746 mmHg 70%
    19:00 +32°C° 0.1 mm 2 mps 747 mmHg 73%
    20:00 +32°C° 0.1 mm 1 mps 747 mmHg 76%
    21:00 +31°C° 0.1 mm 1 mps 748 mmHg 79%
    22:00 +31°C° 0 mm 1 mps 748 mmHg 80%
    23:00 +30°C° 0 mm 1 mps 747 mmHg 81%

    24 July, Monday

    Time Temperature Precipitation Wind Pressure Humidity
    00:00 +30°C° 0 mm 1 mps 747 mmHg 82%
    01:00 +30°C° 0.4 mm 1 mps 747 mmHg 83%
    02:00 +30°C° 0.4 mm 1 mps 747 mmHg 83%
    03:00 +30°C° 0.4 mm 2 mps 746 mmHg 84%
    04:00 +30°C° 0.5 mm 2 mps 746 mmHg 85%
    05:00 +29°C° 0.5 mm 2 mps 746 mmHg 86%
    06:00 +29°C° 0.5 mm 2 mps 746 mmHg 86%
    07:00 +30°C° 0.1 mm 2 mps 747 mmHg 82%
    08:00 +31°C° 0.1 mm 2 mps 747 mmHg 77%
    09:00 +34°C° 0.1 mm 3 mps 747 mmHg 72%
    10:00 +34°C° 2.1 mm 3 mps 747 mmHg 69%
    11:00 +35°C° 2.1 mm 3 mps 747 mmHg 65%
    12:00 +36°C° 2.1 mm 3 mps 746 mmHg 61%
    13:00 +36°C° 1.2 mm 3 mps 746 mmHg 60%
    14:00 +37°C° 1.2 mm 3 mps 745 mmHg 58%
    15:00 +37°C° 1.2 mm 3 mps 745 mmHg 57%
    16:00 +37°C° 0.1 mm 3 mps 745 mmHg 60%
    17:00 +36°C° 0.1 mm 3 mps 745 mmHg 62%
    18:00 +36°C° 0.1 mm 2 mps 745 mmHg 64%
    19:00 +35°C° 0.5 mm 2 mps 745 mmHg 68%
    20:00 +34°C° 0.5 mm 2 mps 746 mmHg 72%
    21:00 +32°C° 0.5 mm 2 mps 746 mmHg 76%
    22:00 +32°C° 2 mm 2 mps 746 mmHg 78%
    23:00 +31°C° 2 mm 2 mps 746 mmHg 79%

    25 July, Tuesday

    Time Temperature Precipitation Wind Pressure Humidity
    00:00 +31°C° 2 mm 2 mps 746 mmHg 81%
    01:00 +31°C° 1.3 mm 2 mps 746 mmHg 81%
    02:00 +30°C° 1.3 mm 2 mps 745 mmHg 81%
    03:00 +30°C° 1.3 mm 2 mps 745 mmHg 82%
    04:00 +30°C° 0.3 mm 2 mps 745 mmHg 82%
    05:00 +30°C° 0.3 mm 2 mps 745 mmHg 83%
    06:00 +30°C° 0.3 mm 2 mps 746 mmHg 83%
    07:00 +31°C° 0.4 mm 2 mps 746 mmHg 80%
    08:00 +31°C° 0.4 mm 3 mps 746 mmHg 76%
    09:00 +33°C° 0.4 mm 3 mps 746 mmHg 73%
    10:00 +34°C° 2.9 mm 3 mps 746 mmHg 72%
    11:00 +34°C° 2.9 mm 4 mps 746 mmHg 70%
    12:00 +35°C° 2.9 mm 4 mps 746 mmHg 68%
    13:00 +35°C° 1.1 mm 4 mps 746 mmHg 66%
    14:00 +36°C° 1.1 mm 3 mps 745 mmHg 64%
    15:00 +36°C° 1.1 mm 3 mps 745 mmHg 62%
    16:00 +35°C° 0.8 mm 3 mps 745 mmHg 65%
    17:00 +35°C° 0.8 mm 3 mps 745 mmHg 69%
    18:00 +34°C° 0.8 mm 3 mps 745 mmHg 72%
    19:00 +33°C° 1.1 mm 3 mps 746 mmHg 75%
    20:00 +33°C° 1.1 mm 3 mps 746 mmHg 78%
    21:00 +31°C° 1.1 mm 3 mps 747 mmHg 81%
    22:00 +31°C° 1.2 mm 3 mps 747 mmHg 82%
    23:00 +30°C° 1.2 mm 3 mps 747 mmHg 83%

    26 July, Wednesday

    Time Temperature Precipitation Wind Pressure Humidity
    00:00 +30°C° 1.2 mm 2 mps 747 mmHg 84%
    01:00 +30°C° 0.5 mm 3 mps 747 mmHg 85%
    02:00 +30°C° 0.5 mm 3 mps 746 mmHg 86%
    03:00 +29°C° 0.5 mm 3 mps 746 mmHg 86%
    04:00 +29°C° 1.2 mm 3 mps 746 mmHg 87%
    05:00 +29°C° 1.2 mm 4 mps 746 mmHg 87%
    06:00 +29°C° 1.2 mm 4 mps 747 mmHg 88%
    07:00 +29°C° 0.8 mm 4 mps 747 mmHg 85%
    08:00 +30°C° 0.8 mm 4 mps 747 mmHg 83%
    09:00 +32°C° 0.8 mm 5 mps 748 mmHg 81%
    10:00 +32°C° 1 mm 4 mps 748 mmHg 79%
    11:00 +32°C° 1 mm 4 mps 747 mmHg 78%
    12:00 +32°C° 1 mm 4 mps 747 mmHg 76%
    13:00 +33°C° 0.1 mm 4 mps 747 mmHg 72%
    14:00 +34°C° 0.1 mm 4 mps 746 mmHg 68%
    15:00 +35°C° 0.1 mm 4 mps 745 mmHg 64%
    16:00 +35°C° 0 mm 3 mps 745 mmHg 66%
    17:00 +35°C° 0 mm 3 mps 745 mmHg 67%
    18:00 +35°C° 0 mm 2 mps 745 mmHg 68%
    19:00 +34°C° 0 mm 2 mps 746 mmHg 72%
    20:00 +32°C° 0 mm 2 mps 746 mmHg 76%
    21:00 +31°C° 0 mm 2 mps 747 mmHg 80%
    22:00 +31°C° 0.6 mm 2 mps 747 mmHg 82%
    23:00 +30°C° 0.6 mm 2 mps 747 mmHg 84%
    Show more